Regional Weather Roundup
Issued by NWS Grand Forks, ND

Home | Current Version | Previous Version | Graphics & Text | Print | Product List | Glossary On
Versions: 1 2 3 4 5 6 7 8 9 10 11 12 13 14 15 16 17 18 19 20 21 22 23 24 25 26 27 28 29 30 31 32 33 34 35 36 37 38 39 40 41 42 43 44 45 46 47 48 49 50
000
ASUS43 KFGF 011231
RWRFGF
PRAIRIE TO PINES  WEATHER ROUNDUP
NATIONAL WEATHER SERVICE EASTERN NORTH DAKOTA/GRAND FORKS ND
700 AM CDT WED APR 01 2015

 **SATELLITE DATA USED TO AUGMENT SKY COVER AT AUTOMATED STATIONS**
 *****  WEATHER ACROSS EASTERN NORTH DAKOTA  *****

CITY           SKY/WX    TMP DP  RH WIND       PRES   REMARKS
GRAND FORKS    MOCLDY    41  29  62 SE8       29.47F
6HR MIN TEMP:  41; 6HR MAX TEMP:  46;

GRAND FRKS AFB MOCLDY    35  27  73 SW2       29.48F
GRAND FRKS NWS   N/A     45 N/A N/A SE12        N/A
DEVILS LAKE    MOCLDY    39  30  70 SE12      29.37F
6HR MIN TEMP:  39; 6HR MAX TEMP:  43;

FARGO          MOCLDY    53  33  46 SE17G30   29.48F
WAHPETON ARPT  MOSUNNY   45  32  61 SE15      29.51F
$$

 ***** WEATHER ACROSS CENTRAL AND WESTERN NORTH DAKOTA  *****

CITY           SKY/WX    TMP DP  RH WIND       PRES   REMARKS
BISMARCK       CLOUDY    44  34  67 W3        29.38R
6HR MIN TEMP:  43; 6HR MAX TEMP:  49;

MINOT          MOCLDY    36  30  79 CALM      29.35R
6HR MIN TEMP:  35; 6HR MAX TEMP:  48;

JAMESTOWN      MOCLDY    44  34  67 SE14      29.39F
6HR MIN TEMP:  43; 6HR MAX TEMP:  47;

MINOT AFB      MOCLDY    33  32  99 SW6       29.35R
GARRISON         N/A     41  32  70 W5        29.38R
WILLISTON      PTCLDY    48  39  71 NW15      29.52R
6HR MIN TEMP:  48; 6HR MAX TEMP:  58;

DICKINSON      PTCLDY    51  37  58 NW25G35   29.46R
6HR MIN TEMP:  50; 6HR MAX TEMP:  63;

HETTINGER      CLEAR     51  37  58 NW21G29   29.49R
6HR MIN TEMP:  39; 6HR MAX TEMP:  62;

$$

 *****  OTHER AIRPORT OBSERVATIONS IN OUR AREA  *****

CITY           SKY/WX    TMP DP  RH WIND       PRES   REMARKS
WALHALLA         N/A     37  32  81 E5        29.47F
GRAFTON AIRPOR NOT AVBL
VALLEY CITY AR FAIR      41  34  75 S12       29.43F
CANDO          FAIR      37  32  81 E10       29.39F
CAVALIER APRT  FAIR      37  32  81 E6        29.47F
GWINNER        SUNNY     52  34  50 S14G21      N/A
SHEYENNE NWR     N/A     41  34  75 SE7       29.95S
ROLLA          FAIR      37  32  81 SE7       29.38F
 ***** THE ABOVE OBSERVATIONS ARE NON NWS ARE NOT QUALITY
       CONTROLLED AND MAY MIS-REPORT RAIN FOR SNOW...
$$

  *****  WEATHER ACROSS NORTHERN MINNESOTA  *****

CITY           SKY/WX    TMP DP  RH WIND       PRES   REMARKS
FLAG ISLAND    PTCLDY    36  28  75 SE9G16    29.63F
WARROAD        PTCLDY    36  30  80 E10       29.61F
ROSEAU         FAIR      43  30  61 SE9       29.58F
HALLOCK        CLOUDY    46  30  53 SE15G24   29.49F
THF RVR FALLS  PTCLDY    43  28  56 SE16      29.53F
6HR MIN TEMP:  39; 6HR MAX TEMP:  43;

BAUDETTE       MOCLDY    37  29  72 SE14      29.64F
6HR MIN TEMP:  35; 6HR MAX TEMP:  37;

WASKISH        FAIR      39  30  70 E10G18    29.63F
CROOKSTON      MOCLDY    46  30  53 SE16      29.50F
$$
  *****  WEATHER ACROSS CENTRAL AND WEST MINNESOTA  *****

CITY           SKY/WX    TMP DP  RH WIND       PRES   REMARKS
FOSSTON        MOCLDY    43  28  56 SE18      29.54F
BEMIDJI        PTCLDY    38  28  67 SE15      29.62F
PARK RAPIDS    PTCLDY    45  26  47 SE17G25   29.63F
6HR MIN TEMP:  44; 6HR MAX TEMP:  47;

ELBOW LAKE     FAIR      47  33  58 SE18      29.56F
6HR MIN TEMP:  47; 6HR MAX TEMP:  50;

WADENA         PTCLDY    43  28  56 SE14      29.62F
DETROIT LAKES  MOCLDY    45  32  61 SE15      29.57F
MOORHEAD       MOCLDY    50  36  57 SE13G21   29.50F
FERGUS FALLS   PTCLDY    48  28  46 SE15      29.56F
MORRIS MN      CLEAR     45  34  65 SE14      29.57F
STAPLES        CLEAR     43  27  52 SE8       29.65F
$$
  *****  WEATHER ELSEWHERE ACROSS MINNESOTA  *****

CITY           SKY/WX    TMP DP  RH WIND       PRES   REMARKS
DULUTH         FOG       30  28  92 E16       29.84F VSB 1/2 WCI  19
6HR MIN TEMP:  30; 6HR MAX TEMP:  32;

INTRNTL FALLS  CLOUDY    34  29  82 SE12      29.74F
6HR MIN TEMP:  32; 6HR MAX TEMP:  35;

ELY            PTCLDY    30  27  86 SE5       29.85F
CLOQUET        CLOUDY    30  30 100 E9        29.83F WCI  22
WHEATON        CLEAR     41  32  70 SE17      29.54F
BRAINERD       PTCLDY    39  28  64 SE12      29.71F
6HR MIN TEMP:  39; 6HR MAX TEMP:  46;

HIBBING        MOCLDY    33  28  81 SE10      29.81F WCI  25
6HR MIN TEMP:  31; 6HR MAX TEMP:  35;

ALEXANDRIA     FAIR      43  32  65 SE13      29.63F
6HR MIN TEMP:  43; 6HR MAX TEMP:  48;

SAINT CLOUD    CLEAR     46  30  53 E10       29.72F
6HR MIN TEMP:  46; 6HR MAX TEMP:  48;

MINNEAPOLIS    PTCLDY    44  33  65 E9        29.78F
6HR MIN TEMP:  43; 6HR MAX TEMP:  48;

$$

  *****  WEATHER ACROSS SOUTH DAKOTA  *****

CITY           SKY/WX    TMP DP  RH WIND       PRES   REMARKS
SIOUX FALLS    PTCLDY    56  32  40 S18       29.65F
6HR MIN TEMP:  55; 6HR MAX TEMP:  60;

BROOKINGS      CLEAR     55  34  44 S21G30    29.61F
WATERTOWN      PTCLDY    50  33  52 SE12      29.55F
6HR MIN TEMP:  49; 6HR MAX TEMP:  56;

HURON          PTCLDY    53  33  46 S15G23    29.50F
6HR MIN TEMP:  52; 6HR MAX TEMP:  57;

SISSETON         N/A     59  34  39 SW25G36   29.48F
ABERDEEN       MOCLDY    52  33  48 SE17      29.44F
6HR MIN TEMP:  49; 6HR MAX TEMP:  58;

MITCHELL       PTCLDY    55  34  45 S12       29.56F
PIERRE         CLOUDY    52  30  43 CALM      29.41F
6HR MIN TEMP:  48; 6HR MAX TEMP:  61;

MOBRIDGE       MOCLDY    47  29  49 SE13      29.36F
RAPID CITY     PTCLDY    58  33  39 NW43G53   29.51R
6HR MIN TEMP:  47; 6HR MAX TEMP:  61;

$$

  *****  SOME WEATHER IN NEARBY STATES *****

CITY           SKY/WX    TMP DP  RH WIND       PRES   REMARKS
GLASGOW MT     CLEAR     43  25  49 W22G29    29.61R
6HR MIN TEMP:  43; 6HR MAX TEMP:  59; 6HR PCP:  0.01;

GREAT FALLS MT PTCLDY    33  16  49 SW17      29.79F WCI  22
6HR MIN TEMP:  32; 6HR MAX TEMP:  44;

CHEYENNE WY    CLOUDY    51  20  29 W13       29.75R
6HR MIN TEMP:  44; 6HR MAX TEMP:  53;

SCOTTSBLUFF NE MOCLDY    42  23  46 N3        29.63S
6HR MIN TEMP:  41; 6HR MAX TEMP:  64;

OMAHA NE       PTCLDY    58  33  39 S20       29.80S
6HR MIN TEMP:  52; 6HR MAX TEMP:  58;

DES MOINES IA  PTCLDY    54  33  45 S10       29.87F
6HR MIN TEMP:  52; 6HR MAX TEMP:  57;

DAVENPORT IA   CLEAR     39  28  64 MISG      29.98R
6HR MIN TEMP:  36; 6HR MAX TEMP:  49;

CHICAGO IL     CLEAR     35  32  88 CALM      30.02R
6HR MIN TEMP:  35; 6HR MAX TEMP:  44;

EAU CLAIRE WI  CLEAR     39  30  70 SE8       29.89S
6HR MIN TEMP:  37; 6HR MAX TEMP:  43;

LA CROSSE WI   CLEAR     39  30  70 SE9       29.92R
6HR MIN TEMP:  38; 6HR MAX TEMP:  44;

$$

  *****  SOME NATIONAL WEATHER *****

CITY           SKY/WX    TMP DP  RH WIND       PRES   REMARKS
LA GUARDIA NY  PTSUNNY   34  20  56 N7        30.01R
6HR MIN TEMP:  34; 6HR MAX TEMP:  37;

RALEIGH NC     MOSUNNY   50  38  63 NE12      30.05R
6HR MIN TEMP:  47; 6HR MAX TEMP:  60;

ATLANTA GA     PTCLDY    56  53  90 NW8       30.02S
6HR MIN TEMP:  56; 6HR MAX TEMP:  59; 6HR PCP:  0.45;

NEW ORLEANS LA MOCLDY    65  62  90 S5        30.04R
6HR MIN TEMP:  64; 6HR MAX TEMP:  67;

OKLAHOMA CITY  PTCLDY    54  51  90 S6        29.83F
6HR MIN TEMP:  54; 6HR MAX TEMP:  63; 6HR PCP:  0.11;

ALBUQUERQUE NM PTCLDY    50  28  42 S8        29.98S
6HR MIN TEMP:  48; 6HR MAX TEMP:  59;

SALT LAKE CITY PTCLDY    42  25  50 N14       30.07R
6HR MIN TEMP:  42; 6HR MAX TEMP:  63;

LOS ANGELES CA PTCLDY    55  53  93 E5        29.96F
6HR MIN TEMP:  55; 6HR MAX TEMP:  59;




USA.gov is the U.S. government's official web portal to all federal, state and local government web resources and services.